Location: Burla
(50.9568°N, 10.4983°E)
Time: 20:30:26
(UTC+00:00)

RUBIN 8/PSLV - Pass Details

Date: 18 January 2026
Orbit: 593 x 628 km, 98.1° (Epoch: 15 February)

Event Time Altitude Azimuth Distance (km) Brightness Sun altitude
Rises 05:12:47 0° 13° (NNE) 2,846 8.0 -18.2°
Reaches altitude 10° 05:14:58 10° 12° (NNE) 1,939 7.1 -17.9°
Maximum altitude 05:19:09 80° 288° (WNW) 611 4.3 -17.2°
Drops below altitude 10° 05:23:21 10° 200° (SSW) 1,932 7.0 -16.6°
Sets 05:25:31 0° 199° (SSW) 2,833 7.9 -16.2°
